TimeEDT,TemperatureF,Dew PointF,Humidity,Sea Level PressureIn,VisibilityMPH,Wind Direction,Wind SpeedMPH,Gust SpeedMPH,PrecipitationIn,Events,Conditions,WindDirDegrees,DateUTC
12:15 AM,35.6,30.2,81,29.83,10.0,SE,5.8,-,N/A,,Scattered Clouds,140,2014-03-19 04:15:00
12:35 AM,35.6,30.2,81,29.83,10.0,SE,5.8,-,N/A,,Overcast,130,2014-03-19 04:35:00
12:55 AM,35.6,30.2,81,29.82,10.0,SSE,4.6,-,N/A,,Overcast,150,2014-03-19 04:55:00
1:15 AM,35.6,30.2,81,29.81,10.0,SE,5.8,-,N/A,,Overcast,130,2014-03-19 05:15:00
1:35 AM,35.6,30.2,81,29.80,10.0,ESE,5.8,-,N/A,,Overcast,120,2014-03-19 05:35:00
1:55 AM,35.6,32.0,87,29.79,10.0,ESE,8.1,-,N/A,,Overcast,120,2014-03-19 05:55:00
2:15 AM,35.6,32.0,87,29.78,10.0,ESE,3.5,-,N/A,,Overcast,110,2014-03-19 06:15:00
2:35 AM,35.6,32.0,87,29.76,10.0,ESE,4.6,-,N/A,,Overcast,120,2014-03-19 06:35:00
2:55 AM,35.6,32.0,87,29.76,10.0,SE,5.8,-,N/A,,Overcast,130,2014-03-19 06:55:00
3:15 AM,35.6,32.0,87,29.75,10.0,ESE,4.6,-,N/A,,Overcast,120,2014-03-19 07:15:00
3:35 AM,35.6,33.8,93,29.74,10.0,SE,5.8,-,N/A,,Overcast,130,2014-03-19 07:35:00
3:55 AM,37.4,33.8,87,29.73,10.0,SE,5.8,-,N/A,,Overcast,130,2014-03-19 07:55:00
4:15 AM,37.4,33.8,87,29.72,10.0,SE,6.9,-,N/A,,Overcast,130,2014-03-19 08:15:00
4:35 AM,37.4,33.8,87,29.71,10.0,SE,8.1,-,N/A,,Overcast,140,2014-03-19 08:35:00
4:55 AM,37.4,33.8,87,29.71,10.0,SE,8.1,-,N/A,,Overcast,140,2014-03-19 08:55:00
5:15 AM,37.4,33.8,87,29.70,10.0,SSE,6.9,-,N/A,,Overcast,150,2014-03-19 09:15:00
5:35 AM,37.4,33.8,87,29.69,10.0,SE,5.8,-,N/A,,Overcast,140,2014-03-19 09:35:00
5:55 AM,37.4,35.6,93,29.69,10.0,SSE,5.8,-,N/A,,Overcast,160,2014-03-19 09:55:00
6:15 AM,37.4,35.6,93,29.69,10.0,South,8.1,-,N/A,,Overcast,170,2014-03-19 10:15:00
6:35 AM,37.4,35.6,93,29.68,10.0,South,5.8,-,N/A,,Overcast,170,2014-03-19 10:35:00
6:55 AM,37.4,35.6,93,29.67,7.0,South,6.9,-,N/A,,Overcast,170,2014-03-19 10:55:00
7:15 AM,37.4,37.4,100,29.67,4.0,South,4.6,-,N/A,,Overcast,170,2014-03-19 11:15:00
7:35 AM,39.2,37.4,93,29.67,2.5,South,8.1,-,N/A,,Overcast,190,2014-03-19 11:35:00
7:55 AM,39.2,39.2,100,29.67,4.0,South,9.2,-,N/A,,Overcast,190,2014-03-19 11:55:00
8:15 AM,39.2,39.2,100,29.66,5.0,South,8.1,-,N/A,,Overcast,170,2014-03-19 12:15:00
8:35 AM,39.2,39.2,100,29.65,3.0,SSE,6.9,-,N/A,,Overcast,160,2014-03-19 12:35:00
8:55 AM,39.2,39.2,100,29.64,5.0,South,8.1,-,N/A,,Overcast,180,2014-03-19 12:55:00
9:15 AM,39.2,39.2,100,29.64,3.0,South,4.6,-,N/A,,Overcast,180,2014-03-19 13:15:00
9:35 AM,39.2,39.2,100,29.64,6.0,South,8.1,-,N/A,,Overcast,170,2014-03-19 13:35:00
9:55 AM,41.0,39.2,93,29.64,8.0,South,12.7,-,N/A,,Overcast,190,2014-03-19 13:55:00
10:15 AM,42.8,39.2,87,29.64,10.0,SW,11.5,-,N/A,,Overcast,220,2014-03-19 14:15:00
10:35 AM,42.8,39.2,87,29.64,10.0,SSW,9.2,-,N/A,,Overcast,210,2014-03-19 14:35:00
10:55 AM,42.8,41.0,93,29.64,9.0,SSW,10.4,-,N/A,,Overcast,210,2014-03-19 14:55:00
11:15 AM,42.8,41.0,93,29.64,10.0,SW,9.2,-,N/A,,Overcast,220,2014-03-19 15:15:00
11:35 AM,42.8,41.0,93,29.63,10.0,SSW,8.1,-,N/A,,Overcast,200,2014-03-19 15:35:00
11:55 AM,44.6,35.6,71,29.63,10.0,SSW,10.4,-,N/A,,Overcast,200,2014-03-19 15:55:00
12:15 PM,44.6,35.6,71,29.62,10.0,SSW,10.4,-,N/A,,Overcast,210,2014-03-19 16:15:00
12:35 PM,44.6,35.6,71,29.62,10.0,SSW,10.4,-,N/A,,Overcast,210,2014-03-19 16:35:00
12:55 PM,44.6,35.6,71,29.62,10.0,SW,9.2,-,N/A,,Overcast,220,2014-03-19 16:55:00
1:15 PM,44.6,35.6,71,29.62,10.0,SSW,10.4,-,N/A,,Overcast,210,2014-03-19 17:15:00
1:35 PM,44.6,35.6,71,29.62,10.0,SW,11.5,-,N/A,,Overcast,230,2014-03-19 17:35:00
1:55 PM,46.4,35.6,66,29.62,10.0,SW,11.5,-,N/A,,Overcast,230,2014-03-19 17:55:00
2:15 PM,46.4,37.4,71,29.62,9.0,SW,13.8,25.3,N/A,,Overcast,230,2014-03-19 18:15:00
2:35 PM,44.6,35.6,71,29.62,8.0,WSW,12.7,-,N/A,,Overcast,250,2014-03-19 18:35:00
2:55 PM,44.6,35.6,71,29.62,1.2,WSW,8.1,-,N/A,,Overcast,250,2014-03-19 18:55:00
3:15 PM,44.6,35.6,71,29.62,1.8,West,12.7,-,N/A,,Overcast,260,2014-03-19 19:15:00
3:35 PM,44.6,35.6,71,29.62,7.0,WSW,12.7,-,N/A,,Mostly Cloudy,250,2014-03-19 19:35:00
3:55 PM,44.6,35.6,71,29.63,10.0,WSW,11.5,-,N/A,,Mostly Cloudy,240,2014-03-19 19:55:00
4:15 PM,44.6,35.6,71,29.64,10.0,WSW,12.7,-,N/A,,Overcast,250,2014-03-19 20:15:00
4:35 PM,44.6,35.6,71,29.64,4.0,West,9.2,-,N/A,,Overcast,260,2014-03-19 20:35:00
4:55 PM,44.6,35.6,71,29.66,1.8,West,15.0,-,N/A,,Overcast,280,2014-03-19 20:55:00
5:15 PM,42.8,33.8,70,29.67,2.0,West,17.3,-,N/A,,Overcast,270,2014-03-19 21:15:00
5:35 PM,39.2,35.6,87,29.69,6.0,WNW,10.4,-,N/A,,Overcast,300,2014-03-19 21:35:00
5:55 PM,37.4,35.6,93,29.71,10.0,NW,18.4,-,N/A,,Overcast,310,2014-03-19 21:55:00
6:15 PM,35.6,33.8,93,29.74,8.0,WNW,18.4,-,N/A,,Overcast,300,2014-03-19 22:15:00
6:35 PM,35.6,33.8,93,29.75,4.0,West,12.7,-,N/A,,Overcast,280,2014-03-19 22:35:00
6:55 PM,35.6,33.8,93,29.77,8.0,WNW,11.5,-,N/A,,Overcast,300,2014-03-19 22:55:00
7:15 PM,35.6,33.8,93,29.78,5.0,WNW,17.3,27.6,N/A,,Overcast,290,2014-03-19 23:15:00
7:35 PM,35.6,33.8,93,29.80,9.0,WNW,18.4,-,N/A,,Overcast,300,2014-03-19 23:35:00
7:55 PM,35.6,33.8,93,29.81,8.0,WNW,11.5,-,N/A,,Overcast,290,2014-03-19 23:55:00
8:15 PM,35.6,33.8,93,29.82,8.0,WNW,13.8,-,N/A,,Overcast,290,2014-03-20 00:15:00
8:35 PM,35.6,33.8,93,29.82,8.0,WNW,13.8,-,N/A,,Overcast,290,2014-03-20 00:35:00
8:55 PM,35.6,33.8,93,29.83,9.0,West,12.7,-,N/A,,Overcast,280,2014-03-20 00:55:00
9:15 PM,35.6,33.8,93,29.83,10.0,West,9.2,-,N/A,,Overcast,280,2014-03-20 01:15:00
9:35 PM,35.6,33.8,93,29.84,10.0,West,10.4,-,N/A,,Overcast,280,2014-03-20 01:35:00
9:55 PM,35.6,33.8,93,29.84,10.0,West,8.1,-,N/A,,Overcast,280,2014-03-20 01:55:00
10:15 PM,35.6,33.8,93,29.85,10.0,West,11.5,-,N/A,,Overcast,280,2014-03-20 02:15:00
10:35 PM,35.6,33.8,93,29.85,3.0,West,10.4,-,N/A,,Overcast,270,2014-03-20 02:35:00
10:55 PM,35.6,33.8,93,29.86,2.5,West,9.2,-,N/A,,Overcast,270,2014-03-20 02:55:00
11:15 PM,35.6,33.8,93,29.87,1.8,West,9.2,-,N/A,,Overcast,270,2014-03-20 03:15:00
11:35 PM,35.6,33.8,93,29.87,2.0,West,11.5,-,N/A,,Overcast,260,2014-03-20 03:35:00
11:55 PM,35.6,33.8,93,29.88,5.0,West,11.5,-,N/A,,Overcast,280,2014-03-20 03:55:00